Regional Weather Roundup
Issued by NWS

Home | Current Version | Previous Version | Graphics & Text | Print | Product List | Glossary On
Versions: 1 2 3 4 5 6 7 8 9 10 11 12 13 14 15 16 17 18 19 20 21 22 23 24 25 26 27 28 29 30 31 32 33 34 35 36 37 38 39 40 41 42 43 44 45 46 47 48 49 50
000
ASUS45 KPSR 280810
RWRAZ

ARIZONA HOURLY REGIONAL WEATHER ROUNDUP
NATIONAL WEATHER SERVICE PHOENIX AZ
100 AM MST THU MAY 28 2015

NOTE: FAIR INDICATES FEW OR NO CLOUDS BELOW 12,000 FEET WITH NO
SIGNIFICANT WEATHER AND/OR OBSTRUCTIONS TO VISIBILITY.

AZZ001>003-036-280900-
NORTHWEST ARIZONA

CITY           SKY/WX    TMP DP  RH WIND       PRES   REMARKS
KINGMAN        CLEAR     67  18  15 S5        30.00F
$$

AZZ004>008-015-016-018-280900-
NORTH CENTRAL ARIZONA

CITY           SKY/WX    TMP DP  RH WIND       PRES   REMARKS
GRAND CANYON   CLEAR     40  33  76 CALM      30.20S
WILLIAMS       CLEAR     43  30  61 S8        30.26F
PRESCOTT       CLEAR     52  29  41 S9        30.10F
FLAGSTAFF      CLEAR     40  30  67 CALM      30.21F
PAYSON         PTCLDY    55  28  35 CALM      30.13S
PAGE           CLEAR     67  40  37 W7        30.04R
$$

AZZ009>014-017-280900-
NORTHEAST ARIZONA

CITY           SKY/WX    TMP DP  RH WIND       PRES   REMARKS
WINSLOW        CLEAR     52  29  41 CALM      30.09S
SAINT JOHNS    PTCLDY    53  24  32 S6        30.13F
WINDOW ROCK    PTCLDY    48  30  49 CALM      30.18F
SHOW LOW       CLEAR     45  21  39 S6        30.19F
$$

AZZ023-280900-
GREATER PHOENIX AREA

CITY           SKY/WX    TMP DP  RH WIND       PRES   REMARKS
PHOENIX        CLEAR     80  38  22 SW6       29.86F
BUCKEYE          N/A     66  32  28 N5        29.88S
LUKE AFB       CLEAR     72  36  26 N1        29.86S
DEER VALLEY    CLEAR     71  33  24 CALM      29.88F
SCOTTSDALE     CLEAR     73  38  27 W3        29.90S
MESA-GATEWAY   CLEAR     68  41  37 SE6       29.90F
$$

AZZ027-028-280900-
SOUTHWEST MARICOPA COUNTY AND PINAL COUNTY

CITY           SKY/WX    TMP DP  RH WIND       PRES   REMARKS
CASA GRANDE    CLEAR     75  36  23 W7        29.89S
GILA BEND      FAIR      71  36  27 SE6       29.86S
$$

AZZ503-504-507>509-280900-
SOUTHEAST ARIZONA

CITY           SKY/WX    TMP DP  RH WIND       PRES   REMARKS
TUCSON         CLEAR     72  28  19 SW7       29.99S
DAVIS-MONTHAN  CLEAR     71  27  19 SW9       29.97S
NOGALES        CLEAR     61  24  24 E3        30.05F
SIERRA VISTA   CLEAR     69  19  15 W8        30.09F
DOUGLAS        CLEAR     59  15  18 SE7       30.07R
SAFFORD        CLEAR     69  24  18 NW8       29.96S
$$

AZZ020-021-025-026-031-280900-
SOUTHWEST ARIZONA

CITY           SKY/WX    TMP DP  RH WIND       PRES   REMARKS
YUMA           CLEAR     75  51  43 CALM      29.84F
$$

CAZ031-033-041-043-047-048-061-280900-
SOUTHERN CALIFORNIA

CITY           SKY/WX    TMP DP  RH WIND       PRES   REMARKS
DOWNTOWN L.A.  CLEAR     58  53  84 CALM      29.98F
L.A. AIRPORT   PTCLDY    58  55  90 SW3       29.99F
SAN DIEGO      CLOUDY    63  54  72 NW3       30.00F
BURBANK        CLEAR     59  52  77 SE3       29.97F
ONTARIO        CLEAR     58  52  80 W7        29.97F
RIVERSIDE      CLEAR     60  53  77 W5        29.98F
PALM SPRINGS   CLEAR     76  50  40 NW3       29.86F
EL CENTRO NAS  CLEAR     74  47  38 CALM      29.83S
IMPERIAL       CLEAR     76  48  37 CALM      29.81S
BLYTHE         CLEAR     76  41  28 S3        29.83S
$$

NVZ020-UTZ003-280900-
SOUTHERN NEVADA-UTAH

CITY           SKY/WX    TMP DP  RH WIND       PRES   REMARKS
LAS VEGAS      CLEAR     79  31  17 S13       29.84S
SALT LAKE CITY MOCLDY    55  48  77 CALM      30.11S
$$

NMZ009-TXZ055-280900-
NEW MEXICO-WEST TEXAS

CITY           SKY/WX    TMP DP  RH WIND       PRES   REMARKS
ALBUQUERQUE    PTCLDY    57  33  40 E8        30.07S
EL PASO        CLOUDY    76  50  40 CALM      29.99F
$$


........................KEY........................
SKY/WX - SKY CONDITION/WEATHER
TMP    - TEMPERATURE IN FAHRENHEIT
DP     - DEW POINT IN FAHRENHEIT
RH     - RELATIVE HUMIDITY IN PERCENT
WIND   - DIRECTION AND SPEED IN MILES PER HOUR (MPH)
VRB    - VARIABLE WIND DIRECTION
PRES   - MEAN SEA LEVEL PRESSURE IN INCHES OF MERCURY
         F - FALLING PRESSURE   R - RISING PRESSURE
         S - STEADY PRESSURE
VSB    - VISIBILITY IN MILES
HX     - HEAT INDEX IN FAHRENHEIT
WCI    - WIND CHILL INDEX IN FAHRENHEIT
TC     - TEMPERATURE IN CELSIUS WHICH IS ALSO KNOWN AS
         TEMPERATURE IN CENTIGRADE
AFB    - AIR FORCE BASE
         LUKE AFB IS LUKE AIR FORCE BASE
         DAVIS-MONTHAN IS DAVIS-MONTHAN AIR FORCE BASE
NAS    - NAVAL AIR STATION
         EL CENTRO NAS IS EL CENTRO NAVAL AIR STATION
N/A    - NOT AVAILABLE




USA.gov is the U.S. government's official web portal to all federal, state and local government web resources and services.